Wind_Speed
13 9 11 16 17 18 19 16 16 11 17 20 17 16 14 18 18 18 18 19 19 20 20 23 25 26 31 31 29 29 18 11 3 7 13 19 14 18 22 26 27 27 27 31
9 14 5 5 1 9 9 17 16 10 17 18 18 17 14 15 16 16 16 16 16 18 18 21 24 26 29 32 31 33 31 29 20 12 13 13 15 19 20 23 25 31 29 29
12 9 3 4 5 10 8 17 17 18 11 19 19 15 14 15 16 15 14 15 15 15 16 18 22 22 23 25 27 28 29 31 31 26 20 16 18 16 17 23 26 22 31 33
7 4 6 8 11 8 10 5 16 20 18 16 21 8 14 15 13 12 13 12 12 13 14 15 18 20 21 22 22 20 23 25 27 28 28 29 25 20 20 23 23 21 21 22
6 8 10 13 8 5 7 4 9 16 16 10 19 5 13 14 14 11 14 12 13 12 14 14 16 17 18 19 20 23 22 23 26 26 25 23 24 27 28 27 27 30 24 21
10 5 2 4 7 4 12 9 6 9 9 8 12 14 13 14 14 11 11 13 12 12 12 14 15 16 17 18 20 21 20 22 24 23 25 26 24 24 26 31 30 25 31 27
7 7 2 9 11 6 12 14 6 7 6 8 12 7 11 14 12 13 12 14 12 11 11 12 13 15 16 18 20 19 21 22 25 25 23 23 25 25 24 25 29 33 32 27
11 5 11 12 7 7 15 16 3 7 10 9 7 7 10 14 16 13 12 11 10 9 9 11 12 14 14 16 19 21 23 23 24 25 25 25 23 24 27 26 23 23 29 32
15 7 8 7 4 8 13 7 4 2 2 7 10 9 10 13 13 12 10 9 7 6 7 8 10 12 13 15 18 20 20 21 25 27 26 26 28 28 26 25 27 26 22 27
2 7 10 6 5 6 6 3 5 3 4 5 12 14 7 18 14 12 11 8 7 4 4 6 8 9 11 14 16 18 20 20 21 25 26 29 28 28 28 29 28 29 30 24
3 6 8 8 10 13 6 6 5 3 3 5 5 4 12 18 16 13 12 8 4 2 4 5 7 9 11 13 16 18 18 19 21 23 23 25 28 31 32 31 31 32 31 33
3 5 8 14 6 6 10 12 11 4 6 4 4 5 10 13 15 12 9 7 5 1 1 4 6 8 11 14 16 17 17 18 19 20 22 25 26 30 32 33 35 35 33 33
7 6 8 5 3 6 6 8 9 2 2 9 3 7 9 14 14 11 8 7 5 5 1 3 5 8 11 13 15 16 16 18 20 22 22 23 27 30 33 36 35 37 39 38
3 7 8 7 2 12 11 15 12 9 3 3 6 15 14 12 11 14 8 7 7 4 1 2 5 8 11 13 14 15 16 18 20 21 23 24 28 30 31 33 37 38 39 40
3 6 7 1 4 8 14 16 15 14 8 6 6 15 18 16 12 10 6 8 7 5 2 3 6 9 11 12 13 15 16 18 20 21 23 24 28 29 32 35 37 37 38 41
6 6 8 5 4 2 8 11 16 16 14 11 7 5 8 11 10 8 10 10 6 4 1 3 6 8 10 11 13 14 17 19 20 21 22 24 27 29 32 34 37 39 39 38
11 7 9 5 8 3 4 17 17 15 16 15 12 10 9 5 9 12 12 9 6 3 1 3 5 7 9 11 13 15 17 18 19 20 21 24 27 29 32 35 38 40 44 42
12 12 7 5 9 4 5 6 21 17 15 15 11 9 11 11 13 12 8 7 6 4 0 2 4 6 9 10 12 15 16 16 18 19 22 24 28 30 32 35 35 37 41 47
13 9 3 4 9 2 6 7 6 14 15 14 15 12 10 11 8 7 12 8 9 3 2 1 2 6 8 9 12 14 15 16 17 20 23 26 28 31 34 35 36 41 41 41
13 9 5 4 4 7 2 12 9 10 9 16 18 15 15 16 7 7 13 11 6 5 3 1 3 5 6 10 11 13 14 16 18 21 24 26 28 31 33 35 43 38 38 36
12 9 9 6 5 5 13 16 14 8 3 20 22 18 19 11 9 19 12 7 7 6 3 0 2 4 7 9 11 12 13 15 18 20 22 24 27 30 31 39 37 36 36 36
12 11 7 9 6 8 23 18 11 8 10 16 18 17 16 17 19 15 9 7 8 5 1 0 2 4 6 8 9 11 12 15 17 20 22 24 27 27 36 35 36 36 37 39
8 9 8 11 7 4 32 11 15 16 19 17 16 15 16 14 11 8 7 10 8 5 3 1 1 4 5 7 8 10 12 14 17 18 20 23 26 31 33 35 37 38 37 38
10 20 7 10 10 15 26 15 19 18 19 17 16 17 16 16 13 11 11 11 9 5 3 1 1 3 5 6 7 8 11 13 15 17 19 21 28 31 30 34 36 36 38 39
9 16 11 10 13 19 25 19 24 19 19 18 16 16 16 14 14 13 12 12 10 6 5 2 0 2 4 6 7 9 10 14 16 16 18 21 28 30 29 31 33 34 34 34
15 16 10 6 16 13 24 27 23 24 20 19 18 16 13 13 14 14 11 12 10 8 6 4 2 0 3 5 6 8 12 15 16 16 18 23 26 28 28 29 32 30 31 31
Wind_Direction
199 211 205 202 212 240 290 199 106 136 126 121 121 118 106 105 100 91 84 81 77 69 63 57 52 46 50 41 47 44 32 8 318 241 248 247 263 256 261 258 257 254 259 254
179 227 77 18 296 238 191 128 130 121 133 129 128 120 115 102 92 91 91 78 68 70 63 60 55 48 47 48 38 42 40 36 25 337 300 283 272 260 262 270 273 266 264 256
205 106 130 173 199 208 167 143 155 170 182 136 132 131 129 125 118 110 93 82 77 68 63 57 54 49 46 42 49 26 35 33 29 21 2 292 266 273 260 257 263 277 271 262
80 120 170 188 186 221 131 118 180 165 176 164 180 139 146 141 127 114 101 89 78 66 66 56 51 45 41 39 38 44 25 30 29 24 26 23 10 346 323 298 278 275 261 268
128 172 191 202 113 360 154 138 151 174 197 158 201 226 154 154 141 123 105 87 78 72 66 59 56 49 41 32 33 29 22 23 24 24 20 23 23 9 351 336 303 275 270 262
152 167 225 125 94 345 138 150 174 195 219 230 190 209 173 183 146 123 114 100 92 81 70 63 54 49 40 29 28 23 27 12 11 9 12 13 12 12 2 353 340 318 291 278
143 182 100 141 136 159 183 168 150 191 185 236 155 177 105 109 115 124 120 113 101 87 69 59 48 41 35 25 18 23 20 13 9 10 4 0 4 2 5 0 354 348 337 328
179 181 168 202 209 187 207 203 220 200 201 154 160 178 151 124 124 126 126 117 108 88 71 50 49 38 30 22 19 11 10 6 1 6 3 4 356 358 355 352 353 353 344 340
200 125 107 187 237 287 178 223 313 261 242 160 155 88 104 137 140 143 138 130 114 87 61 48 38 32 22 19 11 5 6 2 353 359 357 359 2 358 347 342 340 340 346 337
286 124 184 156 259 254 269 183 187 241 203 208 173 167 173 173 166 161 158 161 136 93 56 41 32 29 16 10 3 1 357 357 349 355 356 354 353 358 357 351 338 334 332 334
208 129 157 153 208 189 184 204 236 270 316 235 191 128 131 164 164 163 164 156 134 98 26 26 24 22 13 5 358 357 354 353 352 354 351 349 350 350 351 351 348 343 335 325
157 206 163 196 86 344 251 207 202 213 185 241 347 104 118 140 134 147 152 163 179 162 41 20 19 9 2 356 352 353 354 353 351 350 349 347 344 344 345 347 344 343 339 339
155 167 158 186 234 216 229 225 199 104 301 211 184 138 137 140 141 158 164 194 173 164 155 345 8 1 357 353 350 349 351 350 348 347 346 347 346 343 342 342 343 341 338 339
115 211 191 206 188 156 195 201 203 176 191 231 195 138 160 164 173 175 176 180 181 149 237 354 359 359 354 351 348 345 344 344 343 344 343 344 341 340 338 337 335 338 335 334
236 222 202 73 54 161 183 191 191 199 198 193 213 172 180 185 186 191 175 171 187 207 219 3 355 352 349 347 344 342 339 342 342 341 342 340 334 335 335 334 334 332 330 326
221 198 183 174 169 185 195 201 196 209 205 206 221 208 110 136 155 166 192 196 196 218 220 345 343 341 347 344 342 339 338 339 340 338 340 334 335 334 335 333 331 328 326 326
172 162 160 205 182 163 272 228 215 211 213 213 214 214 220 161 181 183 194 198 196 195 82 337 341 344 343 340 339 336 337 337 337 341 335 336 334 332 332 331 329 327 325 324
180 171 183 148 141 214 185 141 210 219 216 211 218 225 214 173 180 193 184 195 178 129 270 339 345 340 336 336 332 334 337 339 340 337 336 336 335 335 334 331 331 329 323 320
198 176 159 158 201 315 187 194 188 191 220 206 206 197 186 165 142 185 214 168 145 163 144 108 340 337 335 332 333 335 340 338 340 339 338 338 338 335 333 336 332 325 327 324
202 193 158 195 204 206 271 150 169 187 236 203 199 187 186 158 187 138 130 135 150 153 147 113 345 340 334 332 331 338 339 341 339 338 338 337 336 335 339 329 328 332 333 336
182 188 194 190 225 266 140 145 151 161 214 176 179 186 180 167 185 133 137 147 159 160 155 58 351 346 335 332 333 338 341 339 337 336 333 337 339 340 331 336 339 341 347 347
167 168 189 200 202 234 152 150 177 143 128 140 159 165 163 172 140 140 153 165 166 167 181 301 356 342 337 331 337 340 340 337 336 333 338 341 341 338 341 346 347 354 352 348
197 190 166 193 200 246 161 158 158 145 139 144 153 156 166 165 168 172 177 175 176 179 189 187 347 342 335 343 343 340 339 338 335 339 343 342 340 343 354 356 357 356 355 351
222 197 179 168 204 168 162 160 158 161 155 156 161 161 168 172 176 184 185 185 183 185 179 174 339 344 347 345 347 345 341 336 341 345 347 342 343 352 357 4 5 1 358 353
181 183 180 192 165 164 173 171 162 164 165 165 167 169 174 181 188 187 191 192 180 177 176 183 214 359 346 348 346 346 336 337 346 351 344 337 350 356 359 5 4 4 3 359
183 182 184 196 181 166 182 177 176 171 175 175 174 174 185 192 189 186 195 182 175 181 181 173 175 350 348 346 342 340 330 343 347 350 340 338 342 355 1 2 359 5 4 6
Height
1496 1498 1496 1488 1487 1479 1479 1484 1497 1504 1503 1513 1524 1531 1533 1536 1539 1541 1544 1546 1549 1550 1552 1552 1551 1549 1545 1541 1537 1535 1533 1534 1534 1534 1534 1534 1534 1535 1540 1541 1542 1544 1544 1543
1493 1495 1488 1487 1485 1482 1474 1487 1507 1508 1508 1516 1526 1534 1537 1540 1543 1545 1547 1549 1551 1552 1553 1554 1553 1552 1548 1546 1542 1540 1538 1537 1535 1535 1535 1534 1534 1536 1536 1538 1538 1536 1538 1540
1487 1490 1492 1490 1489 1485 1480 1493 1511 1515 1511 1515 1526 1537 1538 1540 1543 1546 1549 1551 1553 1554 1555 1556 1555 1554 1552 1549 1548 1544 1542 1539 1538 1535 1533 1531 1532 1532 1530 1530 1529 1529 1532 1532
1491 1496 1493 1491 1489 1484 1493 1490 1499 1505 1508 1522 1508 1537 1533 1536 1540 1545 1548 1551 1554 1556 1557 1558 1557 1556 1554 1553 1551 1549 1545 1541 1540 1537 1533 1531 1530 1528 1527 1525 1524 1523 1524 1522
1496 1498 1496 1494 1493 1498 1500 1502 1502 1506 1506 1507 1513 1522 1525 1528 1536 1542 1547 1552 1556 1557 1558 1559 1558 1559 1557 1555 1553 1550 1548 1544 1541 1538 1535 1532 1531 1531 1528 1523 1518 1517 1515 1514
1495 1496 1496 1493 1502 1502 1506 1509 1509 1508 1508 1522 1504 1514 1527 1526 1530 1539 1546 1552 1556 1557 1559 1560 1560 1559 1558 1557 1554 1552 1549 1546 1542 1540 1536 1533 1530 1526 1524 1521 1516 1511 1508 1507
1500 1501 1503 1501 1505 1508 1506 1509 1522 1526 1522 1519 1497 1511 1513 1522 1529 1538 1546 1552 1556 1557 1559 1560 1560 1559 1559 1556 1554 1553 1550 1547 1542 1539 1535 1533 1530 1527 1523 1518 1516 1513 1509 1503
1497 1512 1502 1500 1496 1500 1505 1500 1499 1518 1516 1513 1505 1515 1523 1526 1534 1540 1546 1550 1553 1556 1559 1559 1559 1559 1559 1558 1555 1553 1551 1547 1543 1539 1535 1532 1529 1525 1524 1520 1516 1513 1509 1506
1484 1494 1499 1500 1498 1498 1496 1503 1494 1503 1500 1504 1507 1525 1524 1530 1536 1540 1544 1548 1552 1555 1557 1558 1559 1559 1559 1558 1555 1553 1551 1549 1544 1540 1535 1531 1528 1524 1522 1519 1516 1512 1506 1504
1472 1498 1497 1502 1503 1500 1499 1492 1505 1503 1512 1511 1496 1514 1509 1527 1532 1537 1543 1547 1550 1553 1555 1556 1557 1558 1558 1557 1556 1554 1551 1548 1544 1540 1536 1531 1527 1524 1520 1516 1512 1509 1506 1499
1476 1483 1500 1503 1502 1495 1502 1499 1497 1492 1496 1501 1496 1501 1497 1516 1524 1532 1538 1545 1548 1552 1554 1555 1557 1557 1557 1557 1555 1553 1550 1547 1543 1540 1536 1531 1527 1523 1518 1514 1510 1505 1500 1496
1479 1481 1502 1498 1490 1495 1487 1490 1493 1499 1505 1496 1499 1518 1508 1515 1523 1530 1536 1542 1546 1550 1552 1554 1555 1556 1556 1555 1554 1552 1548 1545 1543 1540 1536 1531 1526 1522 1517 1513 1508 1503 1497 1492
1481 1485 1494 1500 1500 1496 1497 1491 1486 1493 1502 1496 1507 1518 1515 1521 1527 1534 1537 1541 1543 1547 1550 1552 1553 1554 1554 1554 1552 1550 1547 1544 1541 1538 1534 1530 1525 1520 1515 1511 1505 1500 1494 1488
1483 1478 1482 1488 1476 1482 1496 1492 1493 1500 1511 1502 1498 1512 1517 1522 1526 1531 1535 1538 1541 1544 1548 1550 1551 1552 1552 1551 1550 1548 1545 1542 1539 1536 1532 1528 1523 1519 1514 1509 1504 1498 1492 1485
1486 1482 1477 1482 1480 1479 1484 1487 1492 1497 1500 1507 1499 1502 1508 1514 1521 1525 1531 1536 1539 1543 1545 1547 1549 1549 1550 1549 1548 1547 1543 1541 1537 1534 1530 1526 1522 1517 1512 1506 1500 1495 1489 1484
1485 1484 1481 1492 1489 1487 1485 1483 1487 1492 1494 1499 1500 1504 1504 1511 1518 1526 1531 1534 1537 1539 1542 1544 1546 1547 1547 1547 1545 1544 1541 1539 1535 1532 1528 1524 1519 1515 1510 1504 1498 1492 1485 1480
1482 1481 1488 1496 1489 1494 1505 1489 1483 1485 1488 1493 1502 1501 1503 1509 1515 1522 1527 1530 1534 1537 1541 1543 1544 1545 1545 1544 1543 1541 1539 1536 1533 1530 1525 1522 1517 1512 1506 1500 1494 1487 1480 1473
1477 1481 1483 1489 1494 1510 1473 1470 1478 1479 1482 1486 1493 1496 1500 1506 1514 1520 1524 1528 1533 1536 1540 1541 1542 1542 1542 1542 1539 1538 1536 1534 1531 1527 1523 1519 1515 1509 1503 1497 1490 1484 1476 1467
1473 1473 1487 1493 1492 1472 1470 1470 1473 1476 1479 1480 1487 1495 1499 1507 1513 1519 1523 1526 1531 1535 1537 1538 1539 1539 1539 1539 1537 1535 1533 1531 1529 1524 1521 1517 1513 1507 1500 1493 1486 1478 1470 1462
1470 1469 1485 1484 1482 1483 1459 1461 1469 1472 1482 1474 1482 1489 1497 1504 1513 1516 1521 1525 1530 1532 1534 1535 1536 1536 1537 1536 1535 1533 1531 1529 1525 1522 1518 1514 1510 1504 1497 1489 1481 1474 1467 1459
1468 1472 1480 1486 1483 1467 1455 1464 1470 1484 1476 1467 1476 1486 1493 1501 1508 1514 1519 1524 1527 1530 1531 1532 1533 1533 1534 1534 1532 1530 1528 1526 1523 1520 1516 1512 1507 1501 1494 1486 1478 1471 1464 1457
1457 1469 1475 1476 1479 1477 1453 1465 1469 1466 1467 1470 1477 1484 1491 1499 1505 1512 1517 1520 1523 1526 1528 1529 1530 1530 1531 1530 1529 1528 1526 1524 1521 1516 1513 1509 1505 1499 1491 1483 1475 1469 1462 1454
1448 1438 1449 1454 1452 1445 1447 1455 1461 1465 1469 1475 1481 1487 1492 1498 1503 1508 1513 1517 1520 1523 1525 1526 1527 1528 1528 1527 1526 1525 1523 1520 1517 1514 1510 1507 1502 1496 1488 1481 1474 1468 1461 1455
1434 1432 1436 1443 1439 1441 1449 1455 1460 1465 1471 1477 1482 1487 1492 1497 1502 1506 1510 1513 1516 1519 1521 1523 1524 1525 1525 1525 1524 1522 1520 1517 1513 1511 1509 1505 1499 1493 1486 1481 1475 1468 1461 1454
1420 1427 1429 1434 1434 1442 1449 1453 1458 1464 1470 1476 1481 1485 1490 1495 1499 1503 1507 1509 1512 1515 1518 1520 1521 1521 1522 1522 1521 1520 1517 1513 1510 1508 1506 1502 1497 1491 1486 1481 1475 1470 1464 1458
1412 1418 1425 1428 1430 1435 1441 1449 1455 1461 1467 1473 1478 1484 1488 1492 1495 1499 1503 1506 1510 1512 1514 1516 1517 1518 1518 1519 1518 1516 1513 1510 1507 1506 1503 1499 1495 1489 1484 1478 1473 1470 1464 1458